Location: Engelmannsreuth
(49.8125°N, 11.6497°E)
Time: 15:25:16
(UTC+00:00)

USA 215 - Pass Details

Date: 17 February 2020
Orbit: 1098 x 1110 km, 123.0° (Epoch: 08 March)

Event Time Altitude Azimuth Distance (km) Brightness Sun altitude
Rises 04:53:13 0° 78° (ENE) 3,917 7.8 -14.8°
Reaches altitude 10° 04:55:47 10° 73° (ENE) 2,961 6.7 -14.4°
Maximum altitude 05:01:58 48° 2° (N) 1,416 3.8 -13.4°
Enters shadow 05:07:21 14° 294° (WNW) 2,667 4.7 -12.5°
